QPF
0.00 0.00 0.00 0.00 0.00 0.00 0.00 0.00 0.00 0.00 0.00 0.00 0.00 0.00 0.00 0.00 0.00 0.00 0.00 0.00 0.00 0.00 0.00 0.00 0.00 0.00 0.00 0.00 0.00 0.00 0.00 0.00 0.00 0.00 0.00 0.00 0.00 0.00 0.00 0.00 0.00 0.00 0.00 0.00 0.00 0.00 0.00 0.00 0.00
0.00 0.00 0.00 0.00 0.00 0.00 0.00 0.00 0.00 0.00 0.00 0.00 0.00 0.00 0.00 0.00 0.00 0.00 0.00 0.00 0.00 0.00 0.00 0.00 0.00 0.00 0.00 0.00 0.00 0.00 0.00 0.00 0.00 0.00 0.00 0.00 0.00 0.00 0.00 0.00 0.00 0.00 0.00 0.00 0.00 0.00 0.00 0.00 0.00
0.00 0.00 0.00 0.00 0.00 0.00 0.00 0.00 0.00 0.00 0.00 0.00 0.00 0.00 0.00 0.00 0.00 0.00 0.00 0.00 0.00 0.00 0.00 0.00 0.00 0.00 0.00 0.00 0.00 0.00 0.00 0.00 0.00 0.00 0.00 0.00 0.00 0.00 0.00 0.00 0.00 0.00 0.00 0.00 0.00 0.00 0.00 0.00 0.00
0.00 0.00 0.00 0.00 0.00 0.00 0.00 0.00 0.00 0.00 0.00 0.00 0.00 0.00 0.00 0.00 0.00 0.00 0.00 0.00 0.00 0.00 0.00 0.00 0.00 0.00 0.00 0.00 0.00 0.00 0.00 0.00 0.00 0.00 0.00 0.00 0.00 0.00 0.00 0.00 0.00 0.00 0.00 0.00 0.00 0.00 0.00 0.00 0.00
0.00 0.00 0.00 0.00 0.00 0.00 0.00 0.00 0.00 0.00 0.00 0.00 0.00 0.00 0.00 0.00 0.00 0.00 0.00 0.00 0.00 0.00 0.00 0.00 0.00 0.00 0.00 0.00 0.00 0.00 0.00 0.00 0.00 0.00 0.00 0.00 0.00 0.00 0.00 0.00 0.00 0.00 0.00 0.00 0.00 0.00 0.00 0.00 0.00
0.00 0.00 0.00 0.00 0.00 0.00 0.00 0.00 0.00 0.00 0.00 0.00 0.00 0.00 0.00 0.00 0.00 0.00 0.00 0.00 0.00 0.00 0.00 0.00 0.00 0.00 0.00 0.00 0.00 0.00 0.00 0.00 0.00 0.00 0.00 0.00 0.00 0.00 0.00 0.00 0.00 0.00 0.00 0.00 0.00 0.00 0.00 0.00 0.00
0.00 0.00 0.00 0.00 0.00 0.00 0.00 0.00 0.00 0.00 0.00 0.00 0.00 0.00 0.00 0.00 0.00 0.00 0.00 0.00 0.00 0.00 0.00 0.00 0.00 0.00 0.00 0.00 0.00 0.00 0.00 0.00 0.00 0.00 0.00 0.00 0.00 0.00 0.00 0.00 0.00 0.00 0.00 0.00 0.00 0.00 0.00 0.00 0.00
0.00 0.00 0.00 0.00 0.00 0.00 0.00 0.00 0.00 0.00 0.00 0.00 0.00 0.00 0.00 0.00 0.00 0.00 0.00 0.00 0.00 0.00 0.00 0.00 0.00 0.00 0.00 0.00 0.00 0.00 0.00 0.00 0.00 0.00 0.00 0.00 0.00 0.00 0.00 0.00 0.00 0.00 0.00 0.00 0.00 0.00 0.00 0.00 0.00
0.00 0.00 0.00 0.00 0.00 0.00 0.00 0.00 0.00 0.00 0.00 0.00 0.00 0.00 0.00 0.00 0.00 0.00 0.00 0.00 0.00 0.00 0.00 0.00 0.00 0.00 0.00 0.00 0.00 0.00 0.00 0.00 0.00 0.00 0.00 0.00 0.00 0.00 0.00 0.00 0.00 0.00 0.00 0.00 0.00 0.00 0.00 0.00 0.00
0.00 0.00 0.00 0.00 0.00 0.00 0.00 0.00 0.00 0.00 0.00 0.00 0.00 0.00 0.00 0.00 0.00 0.00 0.00 0.00 0.00 0.00 0.00 0.00 0.00 0.00 0.00 0.00 0.00 0.00 0.00 0.00 0.00 0.00 0.00 0.00 0.00 0.00 0.00 0.00 0.00 0.00 0.00 0.00 0.00 0.00 0.00 0.00 0.00
0.00 0.00 0.00 0.00 0.00 0.00 0.00 0.00 0.00 0.00 0.00 0.00 0.00 0.00 0.00 0.00 0.00 0.00 0.00 0.01 0.00 0.00 0.00 0.00 0.00 0.00 0.00 0.00 0.00 0.00 0.00 0.00 0.00 0.00 0.00 0.00 0.00 0.00 0.00 0.00 0.00 0.00 0.00 0.00 0.00 0.00 0.00 0.00 0.00
0.00 0.00 0.00 0.00 0.00 0.00 0.00 0.00 0.00 0.00 0.00 0.00 0.00 0.00 0.00 0.00 0.01 0.00 0.00 0.00 0.00 0.00 0.00 0.00 0.00 0.00 0.00 0.00 0.00 0.00 0.00 0.00 0.00 0.00 0.00 0.00 0.00 0.00 0.00 0.00 0.00 0.00 0.00 0.00 0.00 0.00 0.00 0.00 0.00
0.00 0.00 0.00 0.00 0.00 0.00 0.00 0.00 0.00 0.00 0.00 0.00 0.00 0.00 0.00 0.00 0.00 0.00 0.00 0.01 0.00 0.00 0.01 0.02 0.02 0.00 0.00 0.00 0.00 0.00 0.00 0.00 0.00 0.00 0.00 0.00 0.00 0.00 0.00 0.00 0.00 0.00 0.00 0.00 0.00 0.00 0.00 0.00 0.00
0.00 0.00 0.00 0.00 0.00 0.00 0.00 0.00 0.00 0.00 0.00 0.00 0.00 0.00 0.00 0.00 0.00 0.00 0.00 0.00 0.00 0.00 0.00 0.00 0.04 0.04 0.01 0.00 0.00 0.00 0.00 0.00 0.00 0.00 0.00 0.00 0.00 0.00 0.00 0.00 0.00 0.00 0.00 0.00 0.00 0.00 0.00 0.00 0.00
0.00 0.00 0.00 0.00 0.00 0.00 0.00 0.00 0.00 0.00 0.00 0.00 0.00 0.00 0.00 0.00 0.00 0.00 0.00 0.00 0.00 0.00 0.00 0.00 0.00 0.00 0.00 0.00 0.00 0.00 0.00 0.00 0.00 0.00 0.00 0.00 0.00 0.00 0.00 0.00 0.00 0.00 0.00 0.00 0.00 0.00 0.00 0.00 0.00
0.00 0.00 0.00 0.00 0.00 0.00 0.00 0.00 0.00 0.00 0.00 0.00 0.00 0.00 0.00 0.00 0.00 0.00 0.00 0.00 0.00 0.00 0.00 0.00 0.00 0.00 0.00 0.00 0.00 0.00 0.00 0.00 0.00 0.00 0.00 0.00 0.00 0.00 0.00 0.00 0.00 0.00 0.00 0.00 0.00 0.00 0.00 0.00 0.00
0.00 0.00 0.00 0.00 0.00 0.00 0.00 0.00 0.00 0.00 0.00 0.00 0.00 0.00 0.00 0.00 0.00 0.00 0.00 0.00 0.00 0.00 0.00 0.00 0.00 0.00 0.00 0.00 0.00 0.00 0.00 0.00 0.00 0.00 0.00 0.00 0.00 0.00 0.00 0.00 0.00 0.00 0.00 0.00 0.00 0.00 0.00 0.00 0.00
0.00 0.00 0.00 0.00 0.00 0.00 0.00 0.00 0.00 0.00 0.00 0.00 0.00 0.00 0.00 0.00 0.00 0.00 0.00 0.00 0.00 0.00 0.00 0.00 0.00 0.00 0.00 0.00 0.00 0.00 0.00 0.00 0.00 0.00 0.00 0.00 0.00 0.00 0.00 0.00 0.00 0.00 0.00 0.00 0.00 0.00 0.00 0.00 0.00
0.00 0.00 0.00 0.00 0.00 0.00 0.00 0.00 0.00 0.00 0.00 0.00 0.00 0.00 0.00 0.00 0.00 0.00 0.00 0.00 0.00 0.00 0.00 0.00 0.00 0.00 0.00 0.00 0.00 0.00 0.00 0.00 0.00 0.00 0.00 0.00 0.00 0.00 0.00 0.00 0.00 0.00 0.00 0.00 0.00 0.00 0.00 0.00 0.00
0.00 0.00 0.00 0.00 0.00 0.00 0.00 0.00 0.00 0.00 0.00 0.00 0.00 0.00 0.00 0.00 0.00 0.00 0.00 0.00 0.00 0.00 0.00 0.00 0.00 0.00 0.00 0.00 0.00 0.00 0.00 0.00 0.00 0.00 0.00 0.00 0.00 0.00 0.00 0.00 0.00 0.00 0.00 0.00 0.00 0.00 0.00 0.00 0.00
0.00 0.00 0.00 0.00 0.00 0.00 0.00 0.00 0.00 0.00 0.00 0.00 0.00 0.00 0.00 0.00 0.00 0.00 0.00 0.00 0.00 0.00 0.00 0.00 0.00 0.00 0.00 0.00 0.00 0.00 0.00 0.00 0.00 0.00 0.00 0.00 0.00 0.00 0.00 0.00 0.00 0.00 0.00 0.00 0.00 0.00 0.00 0.00 0.00
0.00 0.00 0.00 0.00 0.00 0.00 0.00 0.00 0.00 0.00 0.00 0.00 0.00 0.00 0.00 0.00 0.00 0.00 0.00 0.00 0.00 0.00 0.00 0.00 0.00 0.00 0.00 0.00 0.00 0.00 0.00 0.00 0.00 0.00 0.00 0.00 0.00 0.00 0.00 0.00 0.00 0.00 0.00 0.00 0.00 0.00 0.01 0.00 0.02
0.00 0.00 0.00 0.00 0.00 0.00 0.00 0.00 0.00 0.00 0.00 0.00 0.00 0.00 0.00 0.00 0.00 0.00 0.00 0.00 0.00 0.00 0.00 0.00 0.00 0.00 0.00 0.00 0.00 0.00 0.00 0.00 0.00 0.00 0.00 0.00 0.00 0.00 0.00 0.00 0.00 0.00 0.00 0.00 0.00 0.00 0.01 0.02 0.02
0.00 0.00 0.00 0.00 0.00 0.00 0.00 0.00 0.00 0.00 0.00 0.00 0.00 0.00 0.00 0.00 0.00 0.00 0.00 0.00 0.00 0.00 0.00 0.00 0.00 0.00 0.00 0.00 0.00 0.00 0.00 0.00 0.00 0.00 0.00 0.00 0.00 0.00 0.00 0.00 0.00 0.00 0.00 0.00 0.00 0.02 0.02 0.02 0.05
0.00 0.00 0.00 0.00 0.00 0.00 0.00 0.00 0.00 0.00 0.00 0.00 0.00 0.00 0.00 0.00 0.00 0.00 0.00 0.00 0.00 0.00 0.00 0.00 0.00 0.00 0.00 0.00 0.00 0.00 0.00 0.00 0.00 0.00 0.00 0.00 0.00 0.00 0.00 0.00 0.00 0.00 0.00 0.00 0.00 0.01 0.03 0.06 0.10
0.00 0.00 0.00 0.00 0.00 0.00 0.00 0.00 0.00 0.00 0.00 0.00 0.00 0.00 0.00 0.00 0.00 0.00 0.00 0.00 0.00 0.00 0.00 0.00 0.00 0.00 0.00 0.00 0.00 0.00 0.00 0.00 0.00 0.00 0.00 0.00 0.00 0.00 0.00 0.02 0.02 0.00 0.00 0.00 0.00 0.00 0.01 0.03 0.03
0.00 0.00 0.00 0.02 0.02 0.05 0.00 0.00 0.00 0.00 0.00 0.00 0.00 0.00 0.00 0.00 0.00 0.00 0.00 0.00 0.00 0.00 0.00 0.00 0.00 0.00 0.00 0.00 0.00 0.00 0.00 0.00 0.00 0.00 0.00 0.00 0.00 0.00 0.03 0.05 0.01 0.01 0.00 0.00 0.00 0.00 0.01 0.01 0.05
0.00 0.00 0.00 0.03 0.02 0.01 0.00 0.00 0.00 0.00 0.00 0.00 0.00 0.00 0.00 0.00 0.00 0.00 0.00 0.00 0.00 0.00 0.00 0.00 0.00 0.00 0.00 0.00 0.00 0.00 0.00 0.00 0.00 0.00 0.00 0.00 0.00 0.01 0.03 0.03 0.01 0.00 0.00 0.01 0.00 0.01 0.01 0.00 0.01
0.00 0.00 0.01 0.02 0.02 0.01 0.00 0.00 0.00 0.00 0.00 0.00 0.00 0.00 0.00 0.00 0.00 0.00 0.00 0.00 0.00 0.00 0.00 0.00 0.00 0.00 0.00 0.00 0.00 0.00 0.00 0.00 0.00 0.00 0.00 0.00 0.00 0.01 0.01 0.01 0.00 0.01 0.00 0.00 0.01 0.00 0.00 0.00 0.00
0.00 0.00 0.00 0.00 0.00 0.01 0.01 0.00 0.00 0.00 0.00 0.00 0.00 0.00 0.00 0.00 0.00 0.00 0.00 0.00 0.00 0.00 0.00 0.00 0.00 0.00 0.00 0.00 0.00 0.00 0.00 0.00 0.00 0.00 0.00 0.00 0.01 0.00 0.00 0.01 0.01 0.00 0.00 0.01 0.00 0.00 0.00 0.00 0.00
MSLP
1010.27 1010.08 1010.16 1010.25 1011.67 1011.98 1011.19 1009.21 1007.13 1005.71 1004.74 1003.30 1002.84 1002.75 1001.91 1001.30 1001.70 1002.72 1001.93 1002.94 1003.64 1005.61 1006.49 1007.13 1007.22 1007.37 1007.59 1008.08 1008.64 1009.11 1009.77 1010.23 1010.79 1010.93 1011.14 1011.47 1011.93 1012.22 1012.53 1012.83 1013.03 1013.27 1013.44 1013.67 1013.77 1014.00 1014.03 1013.96 1014.03
1010.17 1010.09 1010.33 1010.81 1011.82 1012.04 1010.34 1008.22 1006.25 1006.17 1004.67 1003.15 1002.46 1001.56 1001.49 1001.25 1000.93 1001.91 1002.54 1003.06 1003.36 1004.85 1006.26 1007.03 1007.25 1007.31 1007.60 1008.00 1008.69 1009.16 1009.66 1009.91 1010.47 1010.85 1011.12 1011.33 1011.69 1012.03 1012.38 1012.68 1012.95 1013.32 1013.41 1013.63 1013.92 1013.98 1014.03 1014.05 1014.10
1010.04 1010.26 1010.88 1011.33 1011.51 1011.06 1009.47 1007.09 1006.25 1005.27 1003.98 1003.48 1002.49 1000.89 1000.65 1000.69 1001.02 1000.84 1001.42 1002.67 1003.10 1004.61 1005.75 1006.56 1007.19 1007.06 1007.38 1007.89 1008.62 1009.15 1009.68 1010.11 1010.33 1010.68 1011.11 1011.28 1011.62 1011.79 1012.10 1012.45 1012.76 1012.90 1013.35 1013.50 1013.76 1013.97 1014.01 1013.97 1013.93
1010.09 1010.65 1011.34 1011.24 1010.70 1009.32 1007.68 1006.44 1005.87 1005.08 1003.26 1002.17 1001.46 1001.09 999.89 999.13 999.82 1000.40 1001.02 1002.74 1002.67 1004.59 1005.38 1006.13 1006.98 1006.89 1007.02 1007.40 1008.03 1008.93 1009.54 1009.95 1010.25 1010.56 1010.98 1011.17 1011.43 1011.77 1011.99 1012.27 1012.61 1012.84 1013.12 1013.44 1013.63 1013.84 1013.91 1013.92 1014.00
1010.15 1010.84 1011.52 1011.36 1009.69 1008.14 1006.76 1006.11 1005.57 1004.71 1003.66 1001.58 1001.00 1000.59 1000.14 1000.00 999.88 1000.58 1001.68 1001.89 1002.87 1004.47 1005.20 1006.05 1006.78 1006.74 1006.85 1007.29 1007.60 1008.42 1009.23 1009.71 1010.08 1010.42 1010.74 1011.05 1011.34 1011.60 1011.92 1012.17 1012.43 1012.64 1012.95 1013.21 1013.43 1013.64 1013.79 1013.94 1014.09
1010.52 1010.82 1011.45 1010.84 1009.04 1007.36 1006.12 1005.37 1005.00 1004.26 1003.09 1001.58 1000.80 1000.74 1001.10 1000.80 1000.48 1000.99 1001.65 1001.96 1002.67 1003.87 1005.33 1006.20 1006.84 1006.94 1006.95 1007.36 1007.57 1008.12 1008.80 1009.42 1009.92 1010.24 1010.44 1010.70 1010.95 1011.34 1011.65 1011.93 1012.18 1012.37 1012.74 1013.06 1013.23 1013.42 1013.76 1014.01 1014.05
1010.49 1011.02 1010.71 1009.96 1008.67 1007.04 1005.63 1004.78 1004.59 1003.80 1003.03 1001.80 1000.49 1000.87 1001.81 1001.53 1001.74 1002.28 1002.05 1002.44 1003.19 1004.14 1005.38 1006.44 1007.06 1006.90 1007.11 1007.51 1007.74 1008.07 1008.55 1009.17 1009.62 1010.01 1010.19 1010.48 1010.67 1011.10 1011.46 1011.65 1011.94 1012.27 1012.64 1012.95 1013.06 1013.28 1013.57 1013.84 1014.03
1010.07 1010.45 1010.45 1009.66 1008.29 1006.65 1005.13 1004.70 1004.34 1003.88 1002.73 1001.85 1000.32 1000.49 1001.18 1001.31 1001.76 1002.92 1003.43 1003.65 1004.42 1005.13 1005.58 1006.14 1006.76 1006.78 1007.06 1007.53 1007.80 1008.03 1008.32 1008.74 1009.23 1009.73 1010.05 1010.28 1010.53 1010.83 1011.23 1011.49 1011.77 1012.07 1012.39 1012.69 1012.81 1013.03 1013.28 1013.57 1013.83
1009.76 1010.12 1009.70 1008.81 1007.95 1005.98 1005.11 1005.00 1004.19 1003.53 1002.90 1002.40 1001.07 999.96 999.84 1000.33 1001.28 1002.59 1003.86 1004.33 1004.89 1005.49 1006.14 1006.52 1006.91 1006.75 1006.76 1007.18 1007.53 1008.08 1008.58 1008.90 1009.16 1009.50 1009.97 1010.27 1010.42 1010.72 1011.15 1011.37 1011.63 1012.00 1012.29 1012.67 1012.72 1012.95 1013.09 1013.33 1013.58
1009.83 1009.51 1008.79 1008.12 1007.48 1006.56 1005.55 1004.82 1004.29 1003.94 1003.03 1002.60 1002.02 1000.99 999.27 1000.91 1001.20 1002.44 1003.11 1003.92 1004.31 1005.34 1006.27 1006.82 1007.09 1007.06 1006.81 1007.08 1007.36 1007.85 1008.33 1008.69 1009.00 1009.07 1009.55 1010.02 1010.38 1010.62 1011.04 1011.29 1011.47 1011.74 1012.07 1012.38 1012.55 1012.74 1013.00 1013.14 1013.35
1009.26 1008.57 1008.46 1007.77 1007.30 1006.77 1005.81 1004.48 1004.34 1004.60 1003.34 1003.04 1003.11 1002.36 1002.20 1001.73 1001.74 1001.90 1002.73 1002.99 1003.48 1004.76 1005.11 1006.22 1007.28 1007.63 1006.97 1007.14 1007.40 1007.82 1008.08 1008.29 1008.64 1008.78 1009.20 1009.70 1010.18 1010.48 1010.75 1011.15 1011.25 1011.63 1011.84 1012.20 1012.36 1012.50 1012.65 1012.83 1013.05
1009.46 1008.72 1008.47 1007.66 1007.15 1006.78 1006.09 1005.02 1004.19 1004.12 1003.19 1002.57 1003.30 1002.99 1002.39 1002.07 1003.13 1002.15 1002.81 1002.98 1003.38 1003.80 1004.24 1005.26 1006.67 1007.50 1008.14 1007.28 1007.19 1007.38 1007.86 1008.03 1008.16 1008.29 1008.88 1009.38 1009.96 1010.42 1010.68 1010.82 1010.97 1011.24 1011.53 1011.91 1012.09 1012.27 1012.30 1012.48 1012.63
1009.44 1009.09 1008.34 1007.75 1007.05 1006.40 1006.17 1004.87 1003.82 1003.10 1002.67 1002.18 1002.24 1002.78 1002.79 1002.56 1002.44 1003.10 1003.76 1002.57 1003.27 1003.49 1003.99 1004.57 1005.78 1006.47 1007.77 1008.46 1007.41 1007.13 1007.47 1007.55 1007.33 1007.72 1008.27 1008.55 1009.17 1009.66 1010.25 1010.32 1010.47 1010.81 1011.11 1011.48 1011.76 1011.93 1012.10 1012.17 1012.28
1009.60 1009.21 1008.63 1007.71 1007.02 1006.55 1006.10 1004.83 1004.40 1001.49 1002.28 1002.00 1001.22 1002.12 1002.15 1002.34 1002.20 1002.78 1003.28 1003.46 1003.29 1003.21 1003.32 1004.13 1004.31 1003.56 1006.29 1007.01 1007.43 1006.26 1006.91 1007.03 1006.93 1007.02 1007.24 1007.85 1008.23 1008.71 1009.49 1009.77 1010.00 1010.33 1010.54 1010.92 1011.09 1011.43 1011.63 1011.77 1011.90
1009.81 1009.39 1008.40 1007.66 1007.05 1006.68 1006.09 1004.71 1003.35 1002.28 1002.12 1001.85 1001.01 1000.98 1001.73 1001.85 1002.43 1002.34 1002.48 1002.22 1002.49 1002.66 1002.57 1003.20 1002.89 1003.00 1004.28 1006.15 1006.84 1005.80 1006.21 1006.58 1006.34 1006.37 1006.66 1007.07 1007.43 1007.97 1008.75 1009.19 1009.41 1009.60 1009.85 1010.35 1010.66 1011.08 1011.20 1011.43 1011.45
1010.52 1009.98 1009.22 1007.94 1007.36 1006.51 1006.11 1003.77 1003.02 1002.88 1002.79 1002.11 1001.72 1000.25 1001.21 1001.35 1001.31 1002.03 1002.05 1002.45 1001.85 1001.59 1002.29 1002.34 1002.67 1003.79 1004.82 1005.30 1005.26 1004.92 1005.43 1005.57 1005.46 1005.80 1006.05 1006.35 1006.80 1007.15 1007.95 1008.47 1008.67 1008.85 1009.22 1009.78 1010.28 1010.62 1010.85 1010.97 1011.07
1010.93 1010.58 1009.63 1008.68 1007.22 1006.60 1006.19 1003.79 1003.26 1003.22 1003.00 1002.41 1001.89 1001.36 1000.16 1001.08 1001.05 1000.87 1001.13 1001.63 1001.94 1002.51 1001.61 1001.75 1002.21 1002.84 1003.73 1003.60 1003.40 1003.50 1004.04 1004.53 1004.70 1005.02 1005.32 1005.71 1006.12 1006.47 1007.04 1007.55 1007.95 1008.15 1008.73 1009.20 1009.62 1010.06 1010.30 1010.53 1010.57
1011.26 1010.68 1009.64 1008.85 1007.63 1006.95 1006.20 1004.81 1004.56 1004.05 1003.68 1003.05 1002.25 1001.46 1000.78 999.95 1000.79 1000.53 1000.48 1000.22 1001.57 1001.58 1001.91 1001.84 1000.99 1001.23 1001.55 1002.02 1002.48 1003.12 1003.71 1003.82 1003.92 1004.20 1004.62 1005.10 1005.34 1005.61 1006.23 1006.84 1007.25 1007.55 1008.15 1008.58 1009.11 1009.43 1009.68 1009.84 1010.00
1010.49 1010.08 1009.30 1008.55 1007.50 1007.01 1006.52 1005.41 1004.83 1004.49 1004.08 1003.56 1002.88 1002.27 1001.43 1000.50 999.35 1000.01 1000.04 999.96 999.77 999.84 1001.01 1001.35 1001.87 1000.79 1001.11 1001.74 1002.48 1003.13 1003.23 1003.29 1003.56 1003.78 1003.81 1004.01 1004.53 1004.90 1005.55 1006.16 1006.60 1006.95 1007.27 1007.61 1008.23 1008.90 1009.38 1009.68 1009.69
1009.97 1009.77 1009.25 1008.11 1007.48 1007.08 1006.76 1005.30 1004.64 1004.53 1004.25 1003.78 1003.24 1002.60 1001.97 1001.00 1000.07 999.50 999.69 999.73 999.92 999.97 999.82 1000.02 1000.47 1000.90 1000.36 1000.52 1000.82 1001.42 1001.99 1002.58 1002.66 1003.09 1003.22 1003.43 1003.79 1004.06 1004.64 1005.19 1005.63 1006.07 1006.59 1007.13 1007.66 1008.13 1008.80 1009.15 1009.37
1009.96 1010.04 1009.77 1009.14 1007.77 1007.20 1007.05 1005.40 1004.54 1004.04 1004.10 1003.75 1003.21 1002.67 1001.91 1001.33 1000.32 999.37 999.12 999.02 999.12 999.53 999.67 999.59 999.57 999.74 999.82 999.78 1000.74 1001.52 1002.08 1002.48 1002.84 1002.95 1002.89 1002.59 1002.85 1003.32 1003.72 1004.14 1004.81 1005.41 1005.83 1006.30 1006.87 1007.42 1007.98 1008.64 1009.08
1010.02 1009.93 1009.89 1009.55 1009.15 1008.70 1007.93 1006.09 1005.04 1004.43 1003.60 1003.77 1003.17 1002.66 1002.00 1001.27 1000.51 999.79 998.94 998.63 998.66 998.42 998.45 998.76 999.08 999.32 999.15 999.58 1000.04 1000.53 1000.97 1001.75 1001.68 1001.75 1001.84 1002.00 1002.19 1002.60 1002.94 1003.24 1003.97 1004.66 1005.19 1005.72 1006.30 1006.79 1007.26 1007.77 1008.58
1010.12 1010.10 1010.32 1010.16 1009.75 1009.25 1008.23 1007.91 1004.58 1004.85 1004.21 1003.47 1003.15 1002.60 1001.89 1001.23 1000.65 999.94 999.14 998.27 997.49 997.59 997.96 998.02 998.02 998.54 998.87 999.17 999.39 999.95 1000.66 1000.72 1000.97 1001.55 1001.78 1001.92 1001.91 1002.05 1002.28 1002.76 1003.52 1004.19 1004.76 1005.23 1005.94 1006.53 1006.93 1007.19 1007.81
1010.18 1010.69 1010.64 1010.27 1010.16 1009.63 1008.47 1008.38 1004.93 1005.13 1004.26 1003.61 1003.04 1002.77 1002.00 1001.36 1000.47 999.77 999.05 998.16 997.32 996.66 997.02 997.22 997.49 997.70 998.00 998.42 998.82 999.33 999.91 1000.37 1000.98 1001.28 1001.63 1001.67 1001.86 1001.96 1002.01 1002.51 1003.27 1003.93 1004.45 1005.00 1005.60 1006.00 1006.32 1006.85 1007.23
1010.37 1011.25 1011.85 1011.29 1010.86 1009.44 1008.54 1007.71 1005.05 1004.80 1004.34 1004.71 1004.52 1003.78 1003.20 1002.46 1001.38 1000.33 999.36 998.24 997.45 997.11 996.47 996.62 996.88 997.17 997.43 997.90 998.18 998.58 999.02 999.43 999.93 1000.45 1000.90 1001.36 1001.74 1001.89 1001.97 1002.47 1003.18 1003.80 1004.15 1004.72 1005.29 1005.67 1006.13 1006.68 1007.21
1010.66 1011.44 1012.60 1012.37 1011.69 1010.85 1009.38 1007.32 1004.99 1004.82 1004.93 1004.76 1004.36 1003.96 1003.14 1002.48 1001.72 1000.72 999.80 998.38 997.31 996.60 996.17 995.88 995.98 996.27 996.62 997.06 997.36 997.69 998.31 998.92 999.21 999.63 1000.20 1000.69 1001.10 1001.25 1001.65 1002.24 1002.97 1003.53 1004.07 1004.53 1005.00 1005.51 1006.05 1006.53 1007.01
1010.21 1011.10 1011.02 1012.09 1012.05 1011.67 1009.46 1007.04 1005.31 1005.00 1005.19 1004.46 1004.28 1003.40 1002.86 1002.20 1001.34 1000.62 999.64 998.50 997.02 995.91 995.14 994.67 995.09 995.56 995.96 996.33 996.73 997.26 997.79 998.35 998.68 999.09 999.73 1000.37 1000.80 1001.25 1001.77 1002.35 1003.01 1003.50 1003.76 1004.31 1004.82 1005.44 1006.00 1006.41 1006.95
1009.56 1009.97 1011.17 1012.23 1012.51 1011.37 1009.03 1007.66 1006.46 1005.69 1005.53 1004.74 1003.91 1003.17 1002.27 1001.57 1000.86 1000.21 999.50 998.13 996.81 995.66 994.39 993.74 993.73 994.15 994.80 995.61 996.27 996.93 997.31 997.68 998.30 998.91 999.58 1000.28 1000.62 1001.10 1001.79 1002.64 1002.82 1003.27 1003.65 1004.20 1004.71 1005.41 1005.82 1006.31 1006.91
1009.40 1009.99 1010.81 1011.72 1012.41 1011.46 1009.80 1007.36 1006.05 1005.87 1005.63 1004.75 1003.58 1002.90 1002.40 1001.33 1000.63 999.89 999.10 998.08 997.35 996.06 995.03 993.13 993.47 993.77 994.36 994.83 995.52 996.38 997.02 997.66 998.27 998.93 999.41 999.96 1000.47 1001.05 1001.81 1002.47 1002.73 1003.07 1003.82 1004.27 1004.83 1005.39 1005.84 1006.41 1006.95
1009.11 1009.72 1010.37 1011.33 1011.54 1010.80 1009.69 1006.66 1005.67 1005.27 1004.65 1004.21 1002.90 1002.08 1001.47 1000.55 999.74 999.07 998.61 997.66 996.90 995.77 994.26 993.43 993.07 993.44 993.93 994.60 995.52 996.22 996.91 997.61 998.26 998.87 999.27 999.91 1000.66 1001.32 1001.88 1002.21 1002.57 1003.09 1003.76 1004.43 1004.88 1005.45 1005.90 1006.37 1006.84
Thickness
5764 5769 5773 5768 5736 5730 5734 5761 5793 5798 5806 5831 5834 5827 5830 5842 5834 5808 5873 5873 5871 5856 5848 5842 5842 5840 5838 5833 5829 5825 5817 5812 5805 5803 5801 5797 5791 5787 5782 5777 5773 5768 5764 5759 5756 5751 5749 5749 5745
5758 5763 5760 5749 5720 5714 5732 5772 5793 5792 5808 5826 5831 5836 5835 5835 5863 5858 5859 5871 5874 5861 5849 5842 5840 5839 5837 5833 5827 5823 5817 5815 5807 5802 5799 5796 5790 5786 5781 5776 5771 5765 5762 5758 5752 5749 5746 5743 5739
5755 5754 5735 5725 5713 5717 5740 5781 5788 5800 5815 5815 5818 5845 5843 5844 5865 5872 5877 5874 5875 5861 5851 5844 5838 5840 5838 5834 5827 5821 5815 5810 5807 5803 5797 5794 5789 5786 5781 5776 5770 5768 5760 5757 5752 5747 5744 5741 5738
5744 5737 5727 5710 5720 5743 5767 5781 5789 5792 5812 5826 5832 5820 5857 5880 5878 5881 5882 5871 5874 5859 5852 5845 5838 5840 5841 5838 5831 5821 5814 5810 5806 5802 5796 5793 5789 5784 5780 5775 5769 5764 5759 5754 5750 5745 5742 5739 5735
5736 5723 5699 5701 5726 5754 5777 5783 5787 5789 5797 5821 5835 5827 5836 5867 5881 5878 5871 5874 5866 5856 5850 5843 5837 5839 5840 5836 5834 5826 5817 5811 5807 5802 5797 5792 5787 5782 5777 5773 5768 5765 5759 5754 5749 5745 5740 5735 5731
5714 5714 5690 5701 5733 5760 5774 5784 5781 5783 5796 5814 5821 5821 5822 5852 5864 5866 5867 5867 5865 5855 5845 5838 5833 5834 5836 5833 5832 5827 5820 5812 5806 5802 5798 5793 5788 5782 5776 5772 5769 5764 5758 5753 5748 5744 5738 5733 5730
5706 5693 5691 5708 5730 5749 5771 5786 5776 5778 5785 5799 5829 5805 5814 5831 5847 5849 5856 5857 5854 5849 5839 5833 5827 5832 5830 5829 5828 5824 5819 5812 5807 5802 5799 5793 5788 5781 5775 5771 5766 5761 5756 5750 5746 5742 5737 5732 5728
5707 5697 5696 5707 5725 5739 5770 5778 5784 5780 5783 5815 5829 5802 5802 5827 5839 5835 5835 5838 5835 5833 5832 5831 5827 5829 5828 5825 5822 5821 5818 5813 5808 5802 5797 5793 5788 5782 5775 5770 5765 5760 5755 5749 5745 5742 5737 5732 5728
5710 5679 5684 5708 5720 5748 5764 5760 5780 5789 5783 5795 5811 5826 5833 5839 5836 5827 5820 5821 5822 5823 5820 5821 5821 5825 5827 5825 5822 5818 5812 5808 5805 5800 5793 5789 5786 5781 5774 5769 5765 5758 5753 5746 5743 5739 5735 5730 5727
5686 5674 5692 5719 5728 5731 5748 5759 5764 5767 5774 5779 5789 5812 5839 5829 5825 5814 5817 5817 5818 5814 5811 5811 5813 5817 5822 5821 5821 5817 5811 5806 5802 5800 5794 5789 5785 5780 5772 5767 5763 5758 5752 5746 5741 5737 5732 5728 5725
5686 5686 5704 5712 5721 5726 5733 5752 5763 5752 5760 5772 5770 5785 5796 5807 5811 5815 5813 5818 5822 5814 5818 5810 5805 5805 5815 5818 5816 5813 5811 5807 5802 5800 5794 5788 5783 5779 5773 5768 5763 5756 5751 5745 5740 5736 5732 5727 5723
5669 5688 5693 5704 5711 5715 5721 5740 5748 5754 5771 5788 5779 5786 5792 5795 5785 5807 5801 5808 5815 5813 5819 5810 5802 5799 5797 5811 5813 5813 5808 5805 5804 5801 5794 5788 5782 5777 5772 5768 5762 5756 5750 5745 5740 5735 5732 5727 5723
5666 5677 5684 5693 5701 5709 5715 5724 5738 5749 5775 5786 5788 5784 5782 5786 5792 5791 5789 5808 5811 5814 5813 5810 5802 5801 5792 5781 5800 5808 5805 5805 5808 5802 5795 5792 5786 5780 5773 5769 5763 5756 5750 5743 5738 5733 5730 5726 5721
5664 5668 5674 5687 5693 5697 5696 5715 5722 5762 5768 5772 5785 5778 5783 5781 5787 5787 5787 5791 5801 5806 5812 5806 5807 5816 5796 5795 5787 5805 5804 5805 5806 5802 5799 5792 5788 5785 5774 5769 5764 5757 5751 5743 5738 5733 5729 5725 5721
5654 5652 5666 5677 5684 5681 5690 5696 5716 5758 5756 5756 5772 5780 5775 5779 5776 5781 5791 5797 5801 5802 5803 5803 5810 5816 5808 5792 5789 5803 5804 5803 5806 5804 5799 5793 5790 5786 5776 5769 5764 5758 5751 5743 5736 5731 5727 5723 5719
5634 5641 5638 5663 5665 5675 5673 5682 5723 5735 5732 5740 5751 5775 5772 5775 5781 5776 5783 5785 5799 5807 5799 5804 5806 5797 5792 5792 5798 5806 5804 5805 5808 5803 5798 5794 5789 5785 5777 5770 5765 5758 5751 5743 5736 5729 5724 5721 5717
5615 5611 5625 5636 5656 5656 5654 5682 5716 5718 5715 5724 5740 5750 5771 5766 5770 5779 5784 5780 5785 5789 5798 5798 5796 5795 5788 5796 5805 5812 5810 5806 5808 5804 5800 5793 5787 5783 5779 5773 5766 5758 5750 5742 5735 5728 5723 5718 5715
5598 5605 5617 5621 5639 5642 5645 5665 5682 5695 5693 5701 5717 5731 5745 5765 5762 5775 5780 5789 5778 5782 5786 5792 5803 5802 5803 5804 5806 5805 5800 5803 5804 5802 5797 5791 5788 5783 5779 5772 5764 5757 5748 5740 5733 5727 5722 5718 5713
5605 5605 5608 5619 5634 5632 5632 5648 5666 5677 5683 5687 5698 5712 5722 5735 5763 5766 5772 5779 5787 5791 5780 5782 5782 5800 5803 5797 5792 5790 5795 5796 5792 5791 5792 5790 5784 5780 5775 5767 5762 5755 5747 5741 5733 5724 5718 5711 5709
5599 5596 5596 5615 5624 5622 5621 5641 5663 5667 5671 5680 5688 5699 5710 5723 5745 5758 5763 5769 5770 5776 5784 5785 5786 5789 5800 5802 5799 5801 5798 5793 5793 5792 5790 5785 5778 5777 5771 5764 5760 5753 5744 5737 5729 5723 5713 5710 5705
5581 5576 5578 5585 5609 5615 5608 5625 5647 5663 5664 5672 5683 5692 5702 5710 5726 5746 5753 5761 5767 5766 5772 5778 5786 5790 5794 5799 5794 5790 5789 5787 5785 5784 5783 5784 5782 5777 5770 5764 5758 5749 5744 5736 5728 5721 5714 5703 5700
5561 5575 5572 5575 5573 5565 5596 5587 5625 5641 5649 5653 5666 5675 5686 5700 5714 5729 5745 5753 5756 5768 5775 5776 5777 5778 5787 5790 5789 5788 5787 5779 5781 5782 5781 5780 5779 5773 5769 5763 5756 5747 5741 5734 5726 5720 5713 5707 5695
5557 5564 5559 5559 5559 5555 5578 5554 5623 5622 5629 5646 5655 5662 5675 5688 5696 5708 5727 5746 5761 5767 5767 5773 5777 5777 5778 5780 5785 5783 5775 5779 5776 5770 5769 5769 5771 5769 5764 5760 5751 5743 5736 5730 5722 5715 5709 5706 5697
5556 5543 5543 5547 5543 5535 5565 5548 5596 5601 5619 5632 5639 5644 5659 5670 5684 5699 5715 5734 5749 5764 5766 5770 5772 5774 5775 5776 5778 5776 5772 5771 5763 5762 5760 5762 5762 5760 5759 5754 5745 5736 5731 5724 5717 5713 5708 5702 5698
5540 5517 5493 5509 5518 5533 5556 5548 5588 5596 5606 5596 5600 5614 5626 5643 5663 5682 5699 5716 5733 5741 5753 5760 5764 5767 5770 5770 5772 5774 5771 5769 5764 5761 5759 5755 5753 5751 5750 5745 5736 5730 5727 5720 5715 5710 5704 5697 5690
5529 5524 5495 5496 5511 5514 5538 5533 5574 5587 5576 5583 5592 5603 5619 5633 5648 5664 5681 5704 5723 5739 5748 5755 5761 5765 5768 5768 5770 5773 5766 5764 5762 5760 5757 5753 5750 5749 5745 5739 5731 5725 5721 5716 5711 5704 5698 5692 5685
5530 5517 5530 5510 5511 5505 5523 5548 5568 5572 5565 5572 5576 5591 5606 5621 5639 5654 5672 5691 5715 5734 5750 5758 5757 5760 5761 5763 5765 5764 5760 5757 5757 5757 5754 5747 5744 5741 5736 5730 5723 5719 5716 5712 5706 5698 5692 5687 5680
5532 5536 5512 5493 5502 5508 5530 5538 5543 5553 5553 5559 5568 5577 5597 5614 5630 5645 5661 5684 5703 5722 5743 5755 5762 5762 5762 5759 5758 5755 5753 5754 5753 5752 5746 5740 5738 5734 5728 5720 5718 5714 5711 5706 5700 5692 5688 5682 5675
5524 5517 5513 5503 5494 5492 5500 5527 5543 5546 5543 5549 5561 5573 5581 5602 5618 5634 5650 5668 5685 5707 5725 5746 5750 5754 5754 5754 5753 5750 5749 5748 5746 5742 5740 5736 5732 5728 5721 5715 5713 5711 5703 5697 5692 5686 5681 5675 5669
5527 5518 5507 5474 5490 5495 5495 5525 5544 5540 5545 5546 5562 5570 5576 5594 5607 5624 5638 5659 5677 5697 5723 5735 5741 5745 5747 5747 5744 5744 5745 5742 5738 5735 5733 5730 5723 5719 5713 5711 5709 5704 5696 5690 5685 5679 5675 5668 5663